カタログに戻る

COSMOS 917 DEB

運用中HEO
NORAD 35505·DEBRIS·🇷🇺 Russia

打ち上げ Jun 16, 1977 から Plesetsk Cosmodrome

Loading…

次のパス (今後24時間)

TLE

最新Source: Space-Track

元期: Sep 14, 2026, 03:39 UTC

1 35505U 77047S   26257.15211072  .00000432  00000-0  10802-2 0  9996
2 35505  59.9327 203.7101 7455310  66.5771 351.9866  2.01810819147691

AllMySatでCOSMOS 917 DEBをリアルタイム追跡

Download on the App Store